Find Syncom 1

NORAD ID: 553 Int'l Des: 1963-004 Owner: GSFC Country: US operational
MEO

Live Position

Loading 3D Globe...

About Syncom 1

Description loading...

Upcoming Passes

Passes for default location (London). Set your location on the main map for personalized predictions.

Altitude History

Loading altitude history...

Two-Line Element Set

1 553U 63004A 26108.52693586 -.00000112 00000-0 00000+0 0 9991
2 553 26.8306 273.9734 0802310 199.6202 157.0349 1.16484268 35364
Epoch: Apr 18, 2026 • Age: 33 hours

Current Status

Altitude 28848.6 km
Velocity 3.49 km/s
Sub-Earth Point -15.75°S, 45.8°W
Type other

Most Searched